Погода в Хавасте

Узбекистан     40°12′55″N   68°50′12″E
темп.,
°C
ветер,
м/с
пор.,
м/с
влажн.,
%
обл.,
%
осадки,
мм/ч
давл.,
гПа
погр.,
м
27 февраля, сб
сб2723:00−4юв226280 0.0 102960
02:00−4вюв1159100 0.0 102840
05:00−3всв1158100 0.0 102864
08:00−2в2354100 0.1 1028149
11:00+2юв3345100 0.1 1029305
14:00+5вюв454198 0.0 1028693
17:00+5вюв353877 0.0 1028546
20:00+1юв46482 0.0 103088
28 февраля, вс
вс2823:00+2вюв1019391 0.0 1030563
02:00+2вюв1221380 0.0 1028590
05:00+1вюв1120430 0.0 1026544
08:00+2вюв1220410 0.0 1025579
11:00+7вюв1317340 0.0 1022727
14:00+10вюв1115280 0.0 1019779
17:00+10вюв1014280 0.0 1019752
20:00+7вюв816350 0.0 1021503
1 марта, пн
пн123:00+6вюв9173647 0.0 1021460
02:00+6вюв81635100 0.0 1021393
05:00+5вюв81337100 0.0 1021246
08:00+6вюв81437100 0.0 1021268
11:00+11вюв10142873 0.0 1020418
14:00+14вюв912230 0.0 1019479
17:00+14вюв810240 0.0 1018447
20:00+11вюв813300 0.0 1021256
2 марта, вт
вт223:00+10вюв610291 0.0 1021186
02:00+10вюв6927100 0.0 1021150
05:00+10вюв61027100 0.0 1021171
08:00+9юв61030100 0.0 1022210
11:00+13юв3426100 0.0 1021444
14:00+16вюв5622100 0.0 1020628
17:00+16в2322100 0.0 1020713
20:00+12ююв1232100 0.0 102227
3 марта, ср
ср323:00+11юз2343100 0.0 102241
02:00+11ююз1143100 0.0 102124
05:00+10сз1251100 0.0 102135
08:00+9в246073 0.1 1021138
11:00+12всв225486 0.1 1020732
14:00+12с4362100 0.0 1019506
17:00+10ссв567897 0.1 1019527
20:00+9всв4682100 0.1 1019339